TimePST,TemperatureF,Dew PointF,Humidity,Sea Level PressureIn,VisibilityMPH,Wind Direction,Wind SpeedMPH,Gust SpeedMPH,PrecipitationIn,Events,Conditions,WindDirDegrees,DateUTC
12:15 AM,17.6,3.2,53,30.31,10.0,Calm,Calm,-,N/A,,Clear,0,2013-01-20 08:15:00
12:35 AM,17.6,5.0,58,30.31,7.0,Calm,Calm,-,N/A,,Clear,0,2013-01-20 08:35:00
12:55 AM,17.6,5.0,58,30.31,10.0,Calm,Calm,-,N/A,,Clear,0,2013-01-20 08:55:00
1:15 AM,17.6,5.0,58,30.31,10.0,Calm,Calm,-,N/A,,Clear,0,2013-01-20 09:15:00
1:35 AM,15.8,3.2,58,30.31,10.0,Calm,Calm,-,N/A,,Clear,0,2013-01-20 09:35:00
1:55 AM,15.8,3.2,58,30.31,10.0,Calm,Calm,-,N/A,,Clear,0,2013-01-20 09:55:00
2:15 AM,15.8,5.0,62,30.31,10.0,Calm,Calm,-,N/A,,Clear,0,2013-01-20 10:15:00
2:35 AM,14.0,5.0,67,30.31,10.0,Calm,Calm,-,N/A,,Clear,0,2013-01-20 10:35:00
2:55 AM,14.0,5.0,67,30.31,10.0,Calm,Calm,-,N/A,,Clear,0,2013-01-20 10:55:00
3:15 AM,14.0,5.0,67,30.30,10.0,Calm,Calm,-,N/A,,Clear,0,2013-01-20 11:15:00
3:35 AM,14.0,5.0,67,30.30,10.0,Calm,Calm,-,N/A,,Clear,0,2013-01-20 11:35:00
3:55 AM,14.0,3.2,62,30.29,10.0,Calm,Calm,-,N/A,,Clear,0,2013-01-20 11:55:00
4:15 AM,12.2,3.2,67,30.29,10.0,Calm,Calm,-,N/A,,Clear,0,2013-01-20 12:15:00
4:35 AM,12.2,3.2,67,30.29,10.0,Calm,Calm,-,N/A,,Clear,0,2013-01-20 12:35:00
4:55 AM,12.2,1.4,62,30.29,10.0,Calm,Calm,-,N/A,,Clear,0,2013-01-20 12:55:00
5:15 AM,12.2,3.2,67,30.30,10.0,Calm,Calm,-,N/A,,Clear,0,2013-01-20 13:15:00
5:35 AM,12.2,3.2,67,30.30,10.0,Calm,Calm,-,N/A,,Clear,0,2013-01-20 13:35:00
5:55 AM,12.2,3.2,67,30.30,10.0,Calm,Calm,-,N/A,,Clear,0,2013-01-20 13:55:00
6:15 AM,12.2,3.2,67,30.30,10.0,Calm,Calm,-,N/A,,Clear,0,2013-01-20 14:15:00
6:35 AM,12.2,3.2,67,30.29,10.0,Calm,Calm,-,N/A,,Clear,0,2013-01-20 14:35:00
6:55 AM,12.2,1.4,62,30.30,10.0,Calm,Calm,-,N/A,,Clear,0,2013-01-20 14:55:00
7:15 AM,12.2,3.2,67,30.30,10.0,Calm,Calm,-,N/A,,Clear,0,2013-01-20 15:15:00
7:35 AM,12.2,3.2,67,30.30,10.0,Calm,Calm,-,N/A,,Clear,0,2013-01-20 15:35:00
7:55 AM,15.8,5.0,62,30.30,10.0,Calm,Calm,-,N/A,,Clear,0,2013-01-20 15:55:00
8:15 AM,19.4,5.0,54,30.30,10.0,Calm,Calm,-,N/A,,Clear,0,2013-01-20 16:15:00
8:35 AM,23.0,8.6,54,30.31,10.0,Calm,Calm,-,N/A,,Clear,0,2013-01-20 16:35:00
8:55 AM,26.6,8.6,47,30.31,10.0,Calm,Calm,-,N/A,,Clear,0,2013-01-20 16:55:00
9:15 AM,30.2,3.2,32,30.31,10.0,Calm,Calm,-,N/A,,Clear,0,2013-01-20 17:15:00
9:35 AM,33.8,3.2,28,30.31,10.0,Calm,Calm,-,N/A,,Clear,0,2013-01-20 17:35:00
10:15 AM,41.0,12.2,31,30.30,10.0,ENE,3.5,-,N/A,,Clear,70,2013-01-20 18:15:00
10:35 AM,46.4,-2.2,13,30.30,10.0,East,5.8,-,N/A,,Clear,90,2013-01-20 18:35:00
10:55 AM,48.2,-5.8,10,30.29,10.0,East,8.1,-,N/A,,Clear,80,2013-01-20 18:55:00
11:15 AM,50.0,-5.8,10,30.28,10.0,ENE,8.1,-,N/A,,Clear,60,2013-01-20 19:15:00
11:35 AM,50.0,-5.8,10,30.27,10.0,NE,8.1,-,N/A,,Clear,40,2013-01-20 19:35:00
11:55 AM,50.0,-5.8,10,30.26,10.0,NE,8.1,-,N/A,,Clear,40,2013-01-20 19:55:00
12:15 PM,50.0,-5.8,10,30.24,10.0,ENE,8.1,-,N/A,,Clear,70,2013-01-20 20:15:00
12:35 PM,50.0,-4.0,11,30.23,10.0,ENE,8.1,-,N/A,,Clear,70,2013-01-20 20:35:00
12:55 PM,50.0,-2.2,12,30.23,10.0,East,6.9,-,N/A,,Clear,90,2013-01-20 20:55:00
1:15 PM,50.0,-4.0,11,30.23,10.0,East,10.4,-,N/A,,Clear,80,2013-01-20 21:15:00
1:35 PM,50.0,-5.8,10,30.22,10.0,ENE,9.2,-,N/A,,Clear,60,2013-01-20 21:35:00
1:55 PM,50.0,-5.8,10,30.22,10.0,NE,8.1,-,N/A,,Clear,50,2013-01-20 21:55:00
2:15 PM,50.0,-4.0,11,30.22,10.0,East,10.4,-,N/A,,Clear,80,2013-01-20 22:15:00
2:35 PM,50.0,-4.0,11,30.22,10.0,East,6.9,-,N/A,,Clear,80,2013-01-20 22:35:00
2:55 PM,48.2,-5.8,10,30.22,10.0,ENE,9.2,-,N/A,,Clear,60,2013-01-20 22:55:00
3:15 PM,48.2,-5.8,10,30.22,10.0,ENE,8.1,-,N/A,,Clear,60,2013-01-20 23:15:00
3:35 PM,46.4,-4.0,12,30.22,10.0,ENE,8.1,-,N/A,,Clear,60,2013-01-20 23:35:00
3:55 PM,46.4,-5.8,11,30.22,10.0,ENE,8.1,-,N/A,,Clear,60,2013-01-20 23:55:00
4:15 PM,44.6,-2.2,14,30.23,10.0,East,4.6,-,N/A,,Clear,80,2013-01-21 00:15:00
4:35 PM,44.6,-2.2,14,30.23,10.0,East,4.6,-,N/A,,Clear,80,2013-01-21 00:35:00
4:55 PM,41.0,3.2,21,30.23,10.0,Calm,Calm,-,N/A,,Clear,0,2013-01-21 00:55:00
5:15 PM,35.6,8.6,33,30.24,10.0,Calm,Calm,-,N/A,,Clear,0,2013-01-21 01:15:00
5:35 PM,32.0,6.8,35,30.24,10.0,Calm,Calm,-,N/A,,Clear,0,2013-01-21 01:35:00
5:55 PM,32.0,8.6,38,30.25,10.0,Calm,Calm,-,N/A,,Clear,0,2013-01-21 01:55:00
6:15 PM,28.4,8.6,43,30.25,10.0,Calm,Calm,-,N/A,,Clear,0,2013-01-21 02:15:00
6:35 PM,28.4,8.6,43,30.25,10.0,Calm,Calm,-,N/A,,Clear,0,2013-01-21 02:35:00
6:55 PM,26.6,10.4,51,30.26,10.0,Calm,Calm,-,N/A,,Clear,0,2013-01-21 02:55:00
7:15 PM,26.6,8.6,47,30.27,10.0,Calm,Calm,-,N/A,,Clear,0,2013-01-21 03:15:00
7:35 PM,26.6,8.6,47,30.27,10.0,Calm,Calm,-,N/A,,Clear,0,2013-01-21 03:35:00
7:55 PM,24.8,8.6,50,30.27,5.0,Calm,Calm,-,N/A,,Haze,0,2013-01-21 03:55:00
8:15 PM,24.8,8.6,50,30.27,5.0,Calm,Calm,-,N/A,,Haze,0,2013-01-21 04:15:00
8:35 PM,23.0,6.8,50,30.28,10.0,Calm,Calm,-,N/A,,Clear,0,2013-01-21 04:35:00
8:55 PM,23.0,6.8,50,30.28,7.0,Calm,Calm,-,N/A,,Clear,0,2013-01-21 04:55:00
9:15 PM,21.2,6.8,54,30.28,10.0,Calm,Calm,-,N/A,,Clear,0,2013-01-21 05:15:00
9:35 PM,21.2,6.8,54,30.28,10.0,Calm,Calm,-,N/A,,Clear,0,2013-01-21 05:35:00
9:55 PM,21.2,10.4,63,30.29,7.0,East,3.5,-,N/A,,Clear,100,2013-01-21 05:55:00
10:15 PM,21.2,8.6,58,30.29,10.0,Calm,Calm,-,N/A,,Clear,0,2013-01-21 06:15:00
10:35 PM,19.4,8.6,63,30.29,7.0,Calm,Calm,-,N/A,,Clear,0,2013-01-21 06:35:00
10:55 PM,19.4,8.6,63,30.28,7.0,Calm,Calm,-,N/A,,Clear,0,2013-01-21 06:55:00
11:15 PM,19.4,8.6,63,30.28,7.0,Calm,Calm,-,N/A,,Clear,0,2013-01-21 07:15:00
11:35 PM,19.4,8.6,63,30.28,10.0,Calm,Calm,-,N/A,,Clear,0,2013-01-21 07:35:00
11:55 PM,19.4,8.6,63,30.28,10.0,Calm,Calm,-,N/A,,Clear,0,2013-01-21 07:55:00